Location: Unspecified
(48.7670°N, 0.0000°E)
Time: 16:08:29
(UTC+00:00)

Vanguard 2 Rocket - Pass Details

Date: 23 June 2019
Orbit: 553 x 3327 km, 32.9° (Epoch: 21 August)

Event Time Altitude Azimuth Distance (km) Brightness Sun altitude
Rises 00:51:36 0° 259° (W) 4,958 10.4 -17.0°
Reaches altitude 10° 00:54:41 10° 251° (WSW) 4,305 10.0 -16.8°
Maximum altitude 01:05:54 38° 189° (S) 3,530 9.3 -16.4°
Drops below altitude 10° 01:22:15 10° 131° (SE) 6,187 10.9 -15.6°
Sets 01:27:51 0° 124° (SE) 7,305 11.4 -15.3°
